Regional Weather Roundup
Issued by NWS

Home | Current Version | Previous Version | Graphics & Text | Print | Product List | Glossary On
Versions: 1 2 3 4 5 6 7 8 9 10 11 12 13 14 15 16 17 18 19 20 21 22 23 24 25 26 27 28 29 30 31 32 33 34 35 36 37 38 39 40 41 42 43 44 45 46 47 48 49 50
000
ASUS44 KMEG 210510
RWRTN
TENNESSEE HOURLY STATE WEATHER ROUNDUP
NATIONAL WEATHER SERVICE MEMPHIS TN
1200 AM CDT SUN SEP 21 2014

TNZ002-004-019-021-049-052-054-088>092-210600-
WEST TENNESSEE

CITY           SKY/WX    TMP DP  RH WIND       PRES   REMARKS
MEMPHIS INTL   CLEAR     76  67  73 S8        30.01F
NWS MEMPHIS      N/A     72 N/A N/A MISG        N/A
JACKSON        CLEAR     71  66  84 S5        30.02S
DYERSBURG      CLEAR     73  61  64 CALM      30.01S
UNION CITY     CLEAR     68  66  94 CALM      29.99S
PARIS          CLEAR     64  63  94 CALM      30.02S
HUNTINGDON     CLEAR     67  65  93 CALM      30.01F
LEXINGTON        N/A     66  64  94 CALM      30.02S VSB 3/4
SAVANNAH       CLEAR     66  66 100 CALM      30.04R
$$

TNZ008-025-027-028-033-062-065-066-210600-
NORTH MIDDLE TENNESSEE

CITY           SKY/WX    TMP DP  RH WIND       PRES   REMARKS
NASHVILLE      CLEAR     69  66  90 S5        30.02F
DICKSON        CLEAR     70  64  83 SW5       30.03S
PORTLAND       CLEAR     66  64  94 S5        30.01F
CLARKSVILLE    CLEAR     70  66  87 S3        30.00S
SMYRNA         CLEAR     65  64  96 CALM      30.03S
MURFREESBORO   CLEAR     71  63  76 S3        30.02S
COOKEVILLE       N/A     63  63 100 CALM      30.04F VSB 3/4
LIVINGSTON     CLEAR     67  61  81 SW5       30.05F
GALLATIN       CLEAR     66  66 100 CALM      30.03S
CROSSVILLE     CLEAR     67  60  78 S3        30.08F
$$

TNZ061-075-076-078-094-096-097-210600-
SOUTH MIDDLE TENNESSEE

CITY           SKY/WX    TMP DP  RH WIND       PRES   REMARKS
LEWISBURG      CLEAR     65  63  93 CALM      30.03F
FAYETTEVILLE   CLEAR     66  61  82 CALM      30.05F
WINCHESTER     CLEAR     63  63 100 CALM      30.06F
MCMINNVILLE    CLEAR     63  63 100 CALM      30.05S
COLUMBIA       CLEAR     66  66 100 CALM      30.02S
SHELBYVILLE    CLEAR     64  64 100 E3        30.05S
$$

TNZ017-018-042-046-047-210600-
NORTHEAST TENNESSEE

CITY           SKY/WX    TMP DP  RH WIND       PRES   REMARKS
TRI CITIES     CLEAR     60  55  83 CALM      30.07F
ELIZABETHTON   CLEAR     57  55  94 CALM      30.08F
$$

TNZ012-013-036-069-073-074-210600-
CENTRAL EAST TENNESSEE

CITY           SKY/WX    TMP DP  RH WIND       PRES   REMARKS
KNOXVILLE      CLEAR     66  61  84 SW5       30.03F
OAK RIDGE      CLEAR     66  63  90 CALM      30.05F
GATLINBURG     CLEAR     61  59  94 CALM      30.04F
MORRISTOWN     CLEAR     63  59  88 CALM      30.06F
$$

TNZ083-085-099-210600-
SOUTHEAST TENNESSEE

CITY           SKY/WX    TMP DP  RH WIND       PRES   REMARKS
CHATTANOOGA    CLEAR     67  63  87 CALM      30.06F
$$

SKY/WX REPORTED AS FAIR MEANS FEW OR NO CLOUDS BELOW
12 THOUSAND FEET.




USA.gov is the U.S. government's official web portal to all federal, state and local government web resources and services.